Simultaneous Nadir Overpasses (SNOs) Predictions

Prediction of SNOs between GOES-16 and METOP-C Satellite Orbit:

Table of predicted SNOs for the next 14.0 days since TLE Epoch: 8/4/2019
Index Date Time (GOES-16) GOES-16 Lat,Lon METOP-C Lat,Lon Distance(km) Time Diff (sec)
1 08/04/2019 14:45:15 -0.00, -75.20 0.66, -78.17 337.84 80
2 08/05/2019 14:21:56 -0.01, -75.19 -0.45, -73.17 230.36 80
3 08/07/2019 02:43:36 0.00, -75.18 -0.58, -77.77 294.94 80
4 08/08/2019 02:20:17 0.01, -75.17 0.52, -72.77 273.63 80
5 08/09/2019 14:41:49 -0.00, -75.18 0.47, -77.34 245.83 80
6 08/10/2019 14:18:30 -0.00, -75.17 -0.64, -72.34 322.99 80
7 08/12/2019 02:40:10 -0.00, -75.17 -0.40, -76.93 201.49 80
8 08/13/2019 02:16:50 0.01, -75.17 0.71, -71.94 367.65 80
9 08/14/2019 14:38:23 -0.00, -75.18 0.27, -76.51 150.61 80
10 08/15/2019 14:15:03 -0.01, -75.19 -0.83, -71.51 418.93 80
11 08/17/2019 02:36:44 0.00, -75.19 -0.21, -76.10 104.31 80
12 08/18/2019 02:13:25 0.01, -75.20 0.95, -71.12 465.67 80




NCC Satellite Simultaneous Nadir Overpasses (SNOs) Prediction Service
